CZ-6A DEB

Satellite information

Favourite Embed

Satellite Type and Status

DEBRISIN ORBIT

Key statistics

Satellite CZ-6A DEB at a glance.

Uptime

1128

Days in orbit

Revolutions

≈ 14.2

Per day

Orbit

SSO

Sun Synchronous Orbit

Inclination

98.8

Latest

Satellite identification and parameters

Extended collection of information and parameters for CZ-6A DEB.

Object identification

Identified? True

Debris? True

Object name: CZ-6A DEB

International designator: 2022-151ACH

Object number (NORAD): 56265

Object ID (CCSDS): 56265

Country: PEOPLES REPUBLIC OF CHINA (PRC)

Current information (Y/N): Y

RCS size: SMALL

Orbital parameters

Period: 101.689 minutes

Inclination: 98.8265 deg

SMA: 7216.793 km

Apoapsis: 867.929 km

Periapsis: 809.387 km

RAAN: 348.8736 deg

Eccentricy: 0.004056

Argument of periapsis: 145.5755 deg

Mean anomaly: 214.8059 deg

Mean motion: 14.16075487 rev/day

Mean motion (dot): 0.00003757 rev/day2

B* drag term: 0.001908554 1/REarth

Two-line elements (TLE)

Creation date: Dec. 12, 2025, 10:14 a.m.

Reference frame: TEME

Reference center: EARTH

Epoch: Dec. 12, 2025, 5:39 a.m. UTC

TLE line 0: 0 CZ-6A DEB

TLE line 1: 1 56265U 22151ACH 25346.23579614 .00003757 00000-0 19086-2 0 9990

TLE line 2: 2 56265 98.8265 348.8736 0040560 145.5755 214.8059 14.16075487140883

Live tracking on map

Real-time ground track for satellite CZ-6A DEB.

In-orbit conjunctions

A list of the most updated potential collisions computed for object CZ-6A DEB.

Target Orbit TCA Probability of collision Miss distance Type
FENGYUN 1C DEB SSO 2025-11-30 21:01:32 0.0002169165 119.0 (m) DEBRIS
COSMOS 2263 LEO 2025-11-01 09:57:02 0.004009036 52.0 (m) PAYLOAD
CZ-6A DEB LEO 2025-02-15 21:49:48 0.0004742462 330.0 (m) DEBRIS
SL-3 R/B LEO 2024-10-10 14:50:14 0.0002429825 314.0 (m) ROCKET BODY
THORAD AGENA D DEB LEO 2024-07-22 16:16:35 0.0002563493 92.0 (m) DEBRIS

Associated space launch

Chinese satellite reported for atmospheric/ocean/environmental/spatial parameter research purposes, details TBD.

CZ-6A DEB was lifted into orbit during the mission ‘Long March 6A | Yunhai 3’, on board a Long March 6A space rocket.

The launch took place on Nov. 11, 2022, 10:52 p.m. from Launch Complex 9A.

For more information about the launch, click the button.

Launch to space Long March 6A | Yunhai 3
Long March 6A | Yunhai 3

Agency: N/A

Status: Launch Successful

Launch date: Nov. 11, 2022, 10:52 p.m. UTC

Rocket: Long March 6A

Launch pad: Launch Complex 9A

Location: Taiyuan Satellite Launch Center, People's Republic of China

...

Latest news about this satellite

There are no fresh news available about this satellite. Check back as we update our databases every day.


Newsletter sign-up

Weekly statistics, charts and insights to help you stay on top of the space industry.